DW4754 Weather Reports


time (UTC)temp
C
wind
direction
speed
KPH
gust
KPH
rain 1hr
cm
rain 24hr
cm
rain mn
cm
humidity
%
barometer
mb
20220927020329 23 158 0.0 0.0 0.00 0.00 0.00 35 1017.7
20220927013403 25 158 0.0 0.0 0.00 0.00 0.00 33 1017.5
20220927010403 26 158 0.0 0.0 0.00 0.00 0.00 30 1017.3
20220927003337 27 158 0.0 0.0 0.00 0.00 0.00 27 1017.0
20220927000334 28 157 0.0 0.0 0.00 0.00 0.00 25 1016.9
20220926233341 29 157 0.0 1.6 0.00 0.00 0.00 24 1016.8
20220926230341 30 121 0.0 6.4 0.00 0.00 0.00 23 1016.8
20220926223334 30 113 0.0 3.2 0.00 0.00 0.00 22 1016.8
20220926220334 30 211 0.0 1.6 0.00 0.00 0.00 23 1017.0
20220926213342 31 65 0.0 1.6 0.00 0.00 0.00 24 1017.2
20220926210403 30 232 0.0 6.4 0.00 0.00 0.00 23 1017.2
20220926200341 30 261 0.0 3.2 0.00 0.00 0.00 24 1018.1
20220926193335 30 274 0.0 11.3 0.00 0.00 0.00 24 1018.6
20220926190331 30 175 0.0 3.2 0.00 0.00 0.00 24 1019.2
20220926183422 29 121 0.0 1.6 0.00 0.00 0.00 25 1019.7
20220926180337 29 230 3.2 8.0 0.00 0.00 0.00 24 1020.2
20220926173350 28 207 0.0 6.4 0.00 0.00 0.00 25 1020.5
20220926170343 28 240 0.0 4.8 0.00 0.00 0.00 27 1020.8
20220926163358 27 203 0.0 8.0 0.00 0.00 0.00 30 1021.2
20220926160339 27 195 0.0 4.8 0.00 0.00 0.00 30 1021.2
20220926150403 25 154 0.0 3.2 0.00 0.00 0.00 39 1021.0
20220926143326 23 182 0.0 3.2 0.00 0.00 0.00 40 1020.6
20220926140346 21 182 0.0 0.0 0.00 0.00 0.00 45 1020.4
20220926133340 21 182 0.0 0.0 0.00 0.00 0.00 47 1020.0
20220926130339 20 182 0.0 0.0 0.00 0.00 0.00 46 1019.7